Home > Time Zones > World Clock > Weather > U.S.A. > Nome > Past weeks

Flag for U.S.A. Weather past 2 weeks in Nome, Alaska, U.S.A.

Now
-20 °F

Passing clouds.


Feels Like: -20 °F
Forecast: -10 / -3 °F
Wind: No wind

Location: Nome Airport

Current Time: Jan 26, 2015 at 7:08:32 PM

Latest Report: Jan 26, 2015 at 5:53 PM


Visibility: 10 mi

Pressure: 30.15 "Hg

Humidity: 76%

Dew point: -25 °F

Location of NomeLocation

Historic Weather in Nome — Graph

°F

Nome temperature yesterday

Maximum temperature yesterday: -15 °F (at 2:53 PM)
Minimum temperature yesterday: -25 °F (at 10:53 PM)
Average temperature yesterday: -22 °F

Past Weeks' High & Low Weather Summary

 TemperatureHumidityPressure
High40 °F (Jan 12, 11:53 AM)100% (Jan 17, 11:53 AM)30.24 "Hg (Jan 17, 11:53 AM)
Low-27 °F (Jan 26, 12:53 AM)47% (Jan 15, 5:53 AM)28.84 "Hg (Jan 17, 5:53 AM)
Average6 °F80%29.64 "Hg
* Reported Jan 11 4:53 PM — Jan 26 4:53 PM, Nome, Weather by CustomWeather, © 2014

Note: Actual official high and low records may vary slightly from our data, if they occured in-between our weather recording intervals... More about our weather records

Advertising

Nome weather history for previous 24 hours

 ConditionsComfort  
Time TempWeatherWind HumidityBarometerVisibility
4:53 PM
Jan 26
-15 °FSunny.5 mph77%30.16 "Hg10 mi
3:53 PM-15 °FSunny.3 mph74%30.17 "Hg10 mi
2:53 PM-17 °FSunny.No wind70%30.19 "Hg10 mi
1:53 PM-18 °FSunny.No wind73%30.20 "Hg10 mi
12:53 PM-21 °FSunny.3 mph69%30.20 "Hg10 mi
11:53 AM-25 °FSunny.3 mph73%30.21 "Hg10 mi
10:53 AM-27 °FClear.No wind80%30.21 "Hg9 mi
9:53 AM-27 °FClear.No wind72%30.22 "Hg10 mi
8:53 AM-27 °FClear.No wind76%30.21 "Hg10 mi
7:53 AM-27 °FClear.3 mph80%30.21 "Hg10 mi
6:53 AM-25 °FClear.No wind77%30.23 "Hg10 mi
5:53 AM-25 °FClear.No wind73%30.23 "Hg10 mi
4:53 AM-26 °FClear.3 mph76%30.22 "Hg10 mi
3:53 AM-26 °FClear.No wind76%30.23 "Hg10 mi
2:53 AM-26 °FClear.3 mph81%30.24 "Hg10 mi
1:53 AM-24 °FClear.3 mph73%30.23 "Hg10 mi
12:53 AM-27 °FPassing clouds.5 mph85%30.22 "Hg10 mi
11:53 PM
Jan 25
-25 °FPassing clouds.No wind81%30.22 "Hg10 mi
10:53 PM-25 °FPassing clouds.3 mph77%30.22 "Hg10 mi
9:53 PM-24 °FPassing clouds.No wind76%30.21 "Hg10 mi
8:53 PM-23 °FPassing clouds.No wind81%30.19 "Hg10 mi
7:53 PM-24 °FPassing clouds.5 mph76%30.21 "Hg10 mi
Weather by CustomWeather, © 2014

See weather overviewHow to use our weather pages